TimeMDT,TemperatureF,Dew PointF,Humidity,Sea Level PressureIn,VisibilityMPH,Wind Direction,Wind SpeedMPH,Gust SpeedMPH,PrecipitationIn,Events,Conditions,WindDirDegrees,DateUTC
12:41 AM,35.6,35.6,100,29.94,10.0,SW,3.5,-,N/A,,Overcast,220,2011-10-10 06:41:00
12:50 AM,35.6,35.6,100,29.94,9.0,WSW,4.6,-,N/A,,Overcast,240,2011-10-10 06:50:00
12:53 AM,36.0,35.1,97,29.95,8.0,SW,4.6,-,N/A,,Overcast,230,2011-10-10 06:53:00
1:37 AM,35.6,35.6,100,29.92,1.8,WSW,5.8,-,N/A,,Overcast,250,2011-10-10 07:37:00
1:53 AM,36.0,36.0,100,29.93,1.0,WSW,4.6,-,N/A,,Mist,250,2011-10-10 07:53:00
2:03 AM,35.6,35.6,100,29.92,0.8,WSW,3.5,-,N/A,,Mist,250,2011-10-10 08:03:00
2:19 AM,35.6,35.6,100,29.92,1.2,WSW,3.5,-,N/A,,Overcast,250,2011-10-10 08:19:00
2:30 AM,35.6,35.6,100,29.91,2.0,West,3.5,-,N/A,,Overcast,260,2011-10-10 08:30:00
2:37 AM,35.6,35.6,100,29.91,1.5,West,3.5,-,N/A,,Overcast,260,2011-10-10 08:37:00
2:46 AM,35.6,35.6,100,29.91,3.0,West,3.5,-,N/A,,Overcast,260,2011-10-10 08:46:00
2:53 AM,36.0,36.0,100,29.90,6.0,West,3.5,-,N/A,,Overcast,260,2011-10-10 08:53:00
3:03 AM,35.6,35.6,100,29.90,8.0,West,3.5,-,N/A,,Overcast,260,2011-10-10 09:03:00
3:12 AM,35.6,35.6,100,29.90,7.0,West,3.5,-,N/A,,Overcast,260,2011-10-10 09:12:00
3:45 AM,35.6,35.6,100,29.89,8.0,WSW,3.5,-,N/A,,Overcast,250,2011-10-10 09:45:00
3:53 AM,36.0,35.1,97,29.88,10.0,WSW,3.5,-,N/A,,Overcast,250,2011-10-10 09:53:00
4:53 AM,36.0,35.1,97,29.86,10.0,West,3.5,-,N/A,,Overcast,270,2011-10-10 10:53:00
5:53 AM,36.0,35.1,97,29.86,10.0,Calm,Calm,-,N/A,,Overcast,0,2011-10-10 11:53:00
6:53 AM,36.0,34.0,93,29.85,10.0,West,5.8,-,N/A,,Overcast,270,2011-10-10 12:53:00
7:53 AM,37.0,34.0,89,29.86,10.0,West,4.6,-,N/A,,Partly Cloudy,260,2011-10-10 13:53:00
8:53 AM,44.1,33.1,65,29.84,10.0,Calm,Calm,-,N/A,,Clear,0,2011-10-10 14:53:00
9:53 AM,48.9,30.0,48,29.83,10.0,West,18.4,23.0,N/A,,Clear,270,2011-10-10 15:53:00
10:53 AM,51.1,28.9,43,29.82,10.0,West,13.8,24.2,N/A,,Clear,270,2011-10-10 16:53:00
11:53 AM,52.0,30.0,43,29.82,10.0,WNW,17.3,24.2,N/A,,Clear,290,2011-10-10 17:53:00
12:53 PM,53.1,28.9,40,29.82,10.0,WSW,16.1,26.5,N/A,,Clear,250,2011-10-10 18:53:00
1:53 PM,53.1,28.0,38,29.81,10.0,WNW,15.0,24.2,N/A,,Clear,290,2011-10-10 19:53:00
2:53 PM,55.0,30.0,38,29.79,10.0,WSW,16.1,27.6,N/A,,Clear,250,2011-10-10 20:53:00
3:53 PM,55.0,28.0,35,29.79,10.0,West,12.7,20.7,N/A,,Clear,280,2011-10-10 21:53:00
4:53 PM,55.0,23.0,29,29.78,10.0,West,10.4,21.9,N/A,,Clear,270,2011-10-10 22:53:00
5:53 PM,52.0,24.1,34,29.81,10.0,WSW,3.5,-,N/A,,Clear,250,2011-10-10 23:53:00
6:53 PM,46.9,26.1,44,29.83,10.0,WSW,3.5,-,N/A,,Clear,240,2011-10-11 00:53:00
7:53 PM,45.0,26.1,48,29.84,10.0,WSW,3.5,-,N/A,,Clear,240,2011-10-11 01:53:00
8:53 PM,42.1,26.1,53,29.82,10.0,SSW,3.5,-,N/A,,Clear,200,2011-10-11 02:53:00
9:53 PM,42.1,25.0,51,29.79,10.0,South,4.6,-,N/A,,Clear,190,2011-10-11 03:53:00
10:53 PM,46.9,28.9,50,29.74,10.0,SW,6.9,-,N/A,,Clear,230,2011-10-11 04:53:00
11:53 PM,46.0,28.9,51,29.73,10.0,WSW,6.9,-,N/A,,Clear,240,2011-10-11 05:53:00